Regional Weather Roundup
Issued by NWS

Home | Current Version | Previous Version | Graphics & Text | Print | Product List | Glossary On
Versions: 1 2 3 4 5 6 7 8 9 10 11 12 13 14 15 16 17 18 19 20 21 22 23 24 25 26 27 28 29 30 31 32 33 34 35 36 37 38 39 40 41 42 43 44 45 46 47 48 49 50
000
ASUS43 KFSD 202002
RWRSD

WEATHER ROUNDUP FOR SOUTH DAKOTA
NATIONAL WEATHER SERVICE SIOUX FALLS SD
300 PM CDT MON OCT 20 2014

NOTE: "FAIR" INDICATES FEW OR NO CLOUDS BELOW 12,000 FEET WITH NO
SIGNIFICANT WEATHER AND/OR OBSTRUCTIONS TO VISIBILITY.


SDZ001>005-009-010-012>017-202100-
NORTHWEST AND NORTH CENTRAL SOUTH DAKOTA

CITY           SKY/WX    TMP DP  RH WIND       PRES   REMARKS
FAITH            N/A     72  40  31 SE22G28   29.95F
MOBRIDGE       SUNNY     72  36  26 S15       29.98F
$$

SDZ012>016-024>037-041>051-057-063-072>074-202100-
SOUTHWEST AND SOUTH CENTRAL SOUTH DAKOTA

CITY           SKY/WX    TMP DP  RH WIND       PRES   REMARKS
RAPID CTY ARPT SUNNY     75  44  33 S17G24    29.95F
PIERRE         SUNNY     74  37  26 SE14      29.99F
CUSTER         SUNNY     71  37  28 S8        30.07F
ELLSWORTH AFB  SUNNY     74  44  33 S20       29.94F
PHILIP         SUNNY     78  42  27 SE10G23   29.96F
PINE RIDGE     SUNNY     78  40  25 S18G28    29.99F
SPEARFISH      FAIR      75  45  33 NE5       29.97F
WINNER         FAIR      76  37  24 S9        30.03F
$$

SDZ004>011-016>023-039-040-202100-
NORTHEAST SOUTH DAKOTA

CITY           SKY/WX    TMP DP  RH WIND       PRES   REMARKS
ABERDEEN       SUNNY     73  38  27 CALM      30.04F
WATERTOWN      SUNNY     69  36  29 N10       30.04F
SISSETON         N/A     69  39  33 N12       30.02F
$$

SDZ017-020-022-023-036>040-048>070-202100-
SOUTHEAST SOUTH DAKOTA

CITY           SKY/WX    TMP DP  RH WIND       PRES   REMARKS
SIOUX FALLS    MOSUNNY   70  42  36 W9        30.04F
HURON          SUNNY     71  33  24 NW3       30.04F
CHAMBERLAIN    SUNNY     72  35  25 S8        30.04F
MITCHELL       SUNNY     70  36  28 VRB3      30.05F
YANKTON        SUNNY     70  39  32 NW3       30.05F
$$

ABBREVIATIONS USED IN REMARKS
   TC - TEMPERATURE IN CELSIUS
  WCI - WIND CHILL INDEX
   HX - HEAT INDEX
  VSB - VISIBILITY



USA.gov is the U.S. government's official web portal to all federal, state and local government web resources and services.